Regional Weather Roundup
Issued by NWS

Home | Current Version | Previous Version | Graphics & Text | Print | Product List | Glossary On
Versions: 1 2 3 4 5 6 7 8 9 10 11 12 13 14 15 16 17 18 19 20 21 22 23 24 25 26 27 28 29 30 31 32 33 34 35 36 37 38 39 40 41 42 43 44 45 46 47 48 49 50
000
ASUS43 KLMK 220110
RWRKY
KENTUCKY REGIONAL WEATHER ROUNDUP
NATIONAL WEATHER SERVICE LOUISVILLE KY
900 PM EDT THU AUG 21 2014

NOTE "FAIR" INDICATES FEW OR NO CLOUDS BELOW 12,000 FEET
WITH NO SIGNIFICANT WEATHER AND/OR OBSTRUCTIONS TO VISIBILITY.

KYZ001>023-026-027-061>063-070>075-220200-
WESTERN AND SOUTH CENTRAL KENTUCKY

CITY           SKY/WX    TMP DP  RH WIND       PRES   REMARKS
PADUCAH        MOCLDY    86  74  67 SW5       29.97F HX  94
HENDERSON      CLOUDY    81  72  74 SW6       29.96S
OWENSBORO      PTCLDY    82  75  79 S7        29.98S
HOPKINSVILLE   CLEAR     84  72  67 S7        30.02S HX  90
BOWLING GREEN  MOCLDY    87  70  56 SW7       30.01F HX  92
GLASGOW        CLEAR     83  72  68 CALM      30.02F
$$

KYZ024-025-028>034-038-045-046-053-220200-
NORTH CENTRAL KENTUCKY

CITY           SKY/WX    TMP DP  RH WIND       PRES   REMARKS
LOUISVILLE/SDF PTCLDY    83  73  72 S8        29.99R
LOUISVILLE/LOU CLEAR     84  72  67 CALM      30.00R
FORT KNOX      PTCLDY    79  74  83 S2        30.00S
$$

KYZ035>037-039>044-047>052-055>060-089>105-220200-
NORTHEAST KENTUCKY

CITY           SKY/WX    TMP DP  RH WIND       PRES   REMARKS
LEXINGTON      MOCLDY    82  72  71 S6        30.03S
COVINGTON      MOCLDY    79  74  84 S3        30.01S
FRANKFORT      PTCLDY    80  73  79 CALM      30.01S
$$

KYZ054-064>069-076>088-106>120-220200-
SOUTHEAST KENTUCKY

CITY           SKY/WX    TMP DP  RH WIND       PRES   REMARKS
JACKSON        MOCLDY    70  68  93 CALM      30.08F
LONDON         MOCLDY    82  71  69 S5        30.08F
SOMERSET       MOCLDY    81  72  74 SW3       30.07F
MIDDLESBORO    MOCLDY    78  72  82 W3        30.10S
MONTICELLO     PTCLDY    79  75  87 CALM      30.08F
$$



USA.gov is the U.S. government's official web portal to all federal, state and local government web resources and services.